Worland, WY

6:27 AM MDT on May 26, 2017 (GMT -0600)
Worland Municipal

Weather History for KWRL - June, 2013

Change the Weather History Date:

Thursday, June 13, 2013

  Actual Average Record
Temperature  
Mean Temperature 72 °F 64 °F  
Max Temperature 93 °F 79 °F 98 °F (1979)
Min Temperature 50 °F 49 °F 34 °F (1969)
Degree Days  
Heating Degree Days 0 3  
Month to date heating degree days 35 60  
Since 1 June heating degree days 35 60  
Since 1 July heating degree days 7456 7836  
Cooling Degree Days 7 2  
Month to date cooling degree days 34 21  
Year to date cooling degree days 51 33  
Since 1 June cooling degree days 34 21  
Growing Degree Days 20 (Base 50)    
Moisture  
Dew Point 45 °F    
Average Humidity 51    
Maximum Humidity 89    
Minimum Humidity 13    
Precipitation  
Precipitation 0.00 in 0.04 in 0.32 in (2009)
Month to date precipitation 0.07 0.62  
Year to date precipitation 2.76 3.78  
Sea Level Pressure  
Sea Level Pressure 29.74 in    
Wind  
Wind Speed 9 mph (NNW)    
Max Wind Speed 30 mph    
Max Gust Speed 38 mph    
Visibility 10 miles    
Events      
T = Trace of Precipitation, MM = Missing Value Source: NWS Daily Summary

Daily Weather History Graph

Daily Weather History Graph

Search for Another Location

Airport or City:

Trip Planner

Search our weather history database for the weather conditions in past years. The results will help you decide how hot, cold, wet, or windy it might be!

Date:

Astronomy

Jun. 13, 2013 Rise Set
Actual Time 5:28 AM MDT 8:55 PM MDT
Civil Twilight 4:52 AM MDT 9:31 PM MDT
Nautical Twilight 4:04 AM MDT 10:19 PM MDT
Astronomical Twilight 3:04 AM MDT 11:19 PM MDT
Moon 10:16 AM MDT (6/13) 11:54 PM MDT (6/13)
Length of Visible Light 16h 39m
Length of Day
15h 27m
Waxing Crescent, 22% of the Moon is Illuminated
Jun 13
Waxing Crescent
Jun 16
First Quarter
Jun 23
Full
Jun 29
Last Quarter
Jul 8
New

Hourly Weather History & Observations

Time (MDT) Temp. Dew Point Humidity Pressure Visibility Wind Dir Wind Speed Gust Speed Precip Events Conditions
12:53 AM 57.9 °F 50.0 °F 75% 29.88 in 10.0 mi WSW 3.5 mph - N/A   Clear
1:53 AM 55.0 °F 48.0 °F 77% 29.86 in 10.0 mi North 3.5 mph - N/A   Clear
2:53 AM 52.0 °F 48.0 °F 86% 29.85 in 10.0 mi Calm Calm - N/A   Clear
3:53 AM 53.1 °F 48.0 °F 83% 29.85 in 10.0 mi South 5.8 mph - N/A   Clear
4:53 AM 50.0 °F 46.0 °F 86% 29.85 in 10.0 mi SE 3.5 mph - N/A   Clear
5:53 AM 53.1 °F 48.0 °F 83% 29.84 in 10.0 mi SSE 8.1 mph - N/A   Clear
6:53 AM 55.0 °F 46.9 °F 74% 29.86 in 10.0 mi South 8.1 mph - N/A   Clear
7:53 AM 57.0 °F 48.0 °F 72% 29.86 in 10.0 mi Calm Calm - N/A   Clear
8:53 AM 63.0 °F 48.9 °F 60% 29.83 in 10.0 mi Calm Calm - N/A   Clear
9:53 AM 69.1 °F 50.0 °F 51% 29.81 in 10.0 mi Calm Calm - N/A   Clear
10:53 AM 77.0 °F 48.9 °F 37% 29.79 in 10.0 mi West 6.9 mph - N/A   Clear
11:53 AM 80.1 °F 46.9 °F 31% 29.75 in 10.0 mi Variable 3.5 mph - N/A   Clear
12:53 PM 86.0 °F 44.1 °F 23% 29.70 in 10.0 mi Variable 5.8 mph - N/A   Clear
1:53 PM 91.0 °F 34.0 °F 13% 29.68 in 10.0 mi SSW 8.1 mph 31.1 mph N/A   Clear
2:53 PM 91.0 °F 34.0 °F 13% 29.69 in 10.0 mi SW 18.4 mph 28.8 mph N/A   Clear
3:36 PM 86.0 °F 46.4 °F 25% 29.80 in 10.0 mi NNE 17.3 mph - N/A   Clear
3:53 PM 86.0 °F 46.0 °F 25% 29.67 in 10.0 mi NNE 11.5 mph 21.9 mph N/A   Clear
4:53 PM 89.1 °F 43.0 °F 20% 29.62 in 10.0 mi NNE 10.4 mph - N/A   Clear
5:53 PM 90.0 °F 39.9 °F 17% 29.58 in 10.0 mi North 6.9 mph - N/A   Clear
6:53 PM 90.0 °F 34.0 °F 14% 29.55 in 10.0 mi SE 11.5 mph - N/A   Clear
7:53 PM 88.0 °F 32.0 °F 14% 29.54 in 10.0 mi SSE 12.7 mph - N/A   Clear
8:53 PM 78.1 °F 43.0 °F 29% 29.55 in 10.0 mi North 17.3 mph 24.2 mph N/A   Clear
9:08 PM 75.2 °F 50.0 °F 41% 29.69 in 10.0 mi North 18.4 mph 29.9 mph N/A   Clear
9:53 PM 72.0 °F 51.1 °F 48% 29.59 in 10.0 mi NNW 13.8 mph - N/A   Clear
10:53 PM 64.0 °F 51.1 °F 63% 29.68 in 10.0 mi NW 20.7 mph 31.1 mph N/A   Clear
11:53 PM 62.1 °F 48.0 °F 60% 29.77 in 10.0 mi North 16.1 mph 35.7 mph N/A   Clear